Time,TemperatureF,DewpointF,PressureIn,WindDirection,WindDirectionDegrees,WindSpeedMPH,WindSpeedGustMPH,Humidity,HourlyPrecipIn,Conditions,Clouds,dailyrainin,SolarRadiationWatts/m^2,SoftwareType,DateUTC
2013-02-19 00:00:00,33.8,24.0,30.32,SSE,150,2.0,2.0,67,0.00,,,0.00,0,Wunderground v.1.15,2013-02-19 05:00:00,
2013-02-19 00:10:00,33.9,24.1,30.31,North,350,1.0,1.0,67,0.00,,,0.00,0,Wunderground v.1.15,2013-02-19 05:10:00,
2013-02-19 00:15:00,33.9,24.1,30.31,WSW,246,0.0,7.0,67,0.00,,,0.00,0,Wunderground v.1.15,2013-02-19 05:15:00,
2013-02-19 00:20:00,33.9,24.1,30.30,SE,140,0.0,7.0,67,0.00,,,0.00,0,Wunderground v.1.15,2013-02-19 05:20:00,
2013-02-19 00:29:00,33.6,24.2,30.31,SSW,203,0.0,7.0,68,0.00,,,0.00,0,Wunderground v.1.15,2013-02-19 05:29:00,
2013-02-19 00:35:00,33.5,24.1,30.30,WSW,240,0.0,7.0,68,0.00,,,0.00,0,Wunderground v.1.15,2013-02-19 05:35:00,
2013-02-19 00:40:00,33.4,24.0,30.30,SW,229,1.0,1.0,68,0.00,,,0.00,0,Wunderground v.1.15,2013-02-19 05:40:00,
2013-02-19 00:45:00,33.3,23.9,30.30,SW,229,0.0,7.0,68,0.00,,,0.00,0,Wunderground v.1.15,2013-02-19 05:45:00,
2013-02-19 00:50:00,33.2,23.8,30.30,SW,221,0.0,7.0,68,0.00,,,0.00,0,Wunderground v.1.15,2013-02-19 05:50:00,
2013-02-19 01:00:00,33.2,23.8,30.30,SSW,209,1.0,1.0,68,0.00,,,0.00,0,Wunderground v.1.15,2013-02-19 06:00:00,
2013-02-19 01:10:00,33.1,23.7,30.30,SW,219,1.0,1.0,68,0.00,,,0.00,0,Wunderground v.1.15,2013-02-19 06:10:00,
2013-02-19 01:15:00,33.1,23.7,30.30,WSW,241,1.0,7.0,68,0.00,,,0.00,0,Wunderground v.1.15,2013-02-19 06:15:00,
2013-02-19 01:20:00,32.9,23.8,30.29,WSW,241,0.0,7.0,69,0.00,,,0.00,0,Wunderground v.1.15,2013-02-19 06:20:00,
2013-02-19 01:29:00,32.6,23.6,30.28,WSW,242,0.0,7.0,69,0.00,,,0.00,0,Wunderground v.1.15,2013-02-19 06:29:00,
2013-02-19 01:35:00,32.5,23.8,30.29,SW,226,0.0,7.0,70,0.00,,,0.00,0,Wunderground v.1.15,2013-02-19 06:35:00,
2013-02-19 01:45:00,32.3,23.6,30.27,SW,223,0.0,7.0,70,0.00,,,0.00,0,Wunderground v.1.15,2013-02-19 06:45:00,
2013-02-19 01:55:00,32.2,23.8,30.26,SW,223,0.0,7.0,71,0.00,,,0.00,0,Wunderground v.1.15,2013-02-19 06:55:00,
2013-02-19 02:00:00,32.1,23.8,30.26,SW,223,0.0,7.0,71,0.00,,,0.00,0,Wunderground v.1.15,2013-02-19 07:00:00,
2013-02-19 02:10:00,31.9,24.2,30.25,SW,223,0.0,7.0,73,0.00,,,0.00,0,Wunderground v.1.15,2013-02-19 07:10:00,
2013-02-19 02:15:00,31.7,24.0,30.25,SW,223,0.0,7.0,73,0.00,,,0.00,0,Wunderground v.1.15,2013-02-19 07:15:00,
2013-02-19 02:24:00,31.6,23.9,30.24,North,10,0.0,7.0,73,0.00,,,0.00,0,Wunderground v.1.15,2013-02-19 07:24:00,
2013-02-19 02:30:00,31.7,24.0,30.24,North,10,0.0,7.0,73,0.00,,,0.00,0,Wunderground v.1.15,2013-02-19 07:30:00,
2013-02-19 02:40:00,31.9,23.9,30.22,East,90,0.0,7.0,72,0.00,,,0.00,0,Wunderground v.1.15,2013-02-19 07:40:00,
2013-02-19 02:45:00,32.1,23.4,30.23,South,180,0.0,7.0,70,0.00,,,0.00,0,Wunderground v.1.15,2013-02-19 07:45:00,
2013-02-19 02:50:00,32.2,23.5,30.24,WSW,246,1.0,1.0,70,0.00,,,0.00,0,Wunderground v.1.15,2013-02-19 07:50:00,
2013-02-19 03:00:00,32.3,23.3,30.24,WSW,250,1.0,1.0,69,0.00,,,0.00,0,Wunderground v.1.15,2013-02-19 08:00:00,
2013-02-19 03:10:00,32.5,23.1,30.24,West,259,2.0,2.0,68,0.00,,,0.00,0,Wunderground v.1.15,2013-02-19 08:10:00,
2013-02-19 03:15:00,32.5,23.5,30.24,ESE,107,1.0,7.0,69,0.00,,,0.00,0,Wunderground v.1.15,2013-02-19 08:15:00,
2013-02-19 03:20:00,32.6,23.2,30.22,SSW,212,2.0,7.0,68,0.00,,,0.00,0,Wunderground v.1.15,2013-02-19 08:20:00,
2013-02-19 03:29:00,32.6,23.6,30.23,South,174,3.0,3.0,69,0.00,,,0.00,0,Wunderground v.1.15,2013-02-19 08:29:00,
2013-02-19 03:35:00,32.5,23.1,30.22,WSW,255,3.0,7.0,68,0.00,,,0.00,0,Wunderground v.1.15,2013-02-19 08:35:00,
2013-02-19 03:40:00,32.6,23.2,30.21,SW,215,3.0,3.0,68,0.00,,,0.00,0,Wunderground v.1.15,2013-02-19 08:40:00,
2013-02-19 03:45:00,32.6,23.6,30.20,SW,234,3.0,7.0,69,0.00,,,0.00,0,Wunderground v.1.15,2013-02-19 08:45:00,
2013-02-19 03:54:00,32.5,23.5,30.21,West,265,1.0,7.0,69,0.00,,,0.00,0,Wunderground v.1.15,2013-02-19 08:54:00,
2013-02-19 04:00:00,32.5,23.8,30.21,SW,232,2.0,2.0,70,0.00,,,0.00,0,Wunderground v.1.15,2013-02-19 09:00:00,
2013-02-19 04:10:00,32.5,23.8,30.22,WNW,284,1.0,7.0,70,0.00,,,0.00,0,Wunderground v.1.15,2013-02-19 09:10:00,
2013-02-19 04:15:00,32.5,23.8,30.22,WNW,287,2.0,7.0,70,0.00,,,0.00,0,Wunderground v.1.15,2013-02-19 09:15:00,
2013-02-19 04:20:00,32.5,23.8,30.22,West,267,3.0,7.0,70,0.00,,,0.00,0,Wunderground v.1.15,2013-02-19 09:20:00,
2013-02-19 04:30:00,32.8,23.7,30.22,SSW,202,5.0,7.0,69,0.00,,,0.00,0,Wunderground v.1.15,2013-02-19 09:30:00,
2013-02-19 04:35:00,33.0,23.9,30.21,SW,231,5.0,7.0,69,0.00,,,0.00,0,Wunderground v.1.15,2013-02-19 09:35:00,
2013-02-19 04:44:00,33.3,23.9,30.21,SE,142,4.0,13.0,68,0.00,,,0.00,0,Wunderground v.1.15,2013-02-19 09:44:00,
2013-02-19 04:50:00,33.3,23.9,30.21,WNW,294,3.0,7.0,68,0.00,,,0.00,0,Wunderground v.1.15,2013-02-19 09:50:00,
2013-02-19 05:00:00,33.5,24.1,30.20,SW,217,4.0,4.0,68,0.00,,,0.00,0,Wunderground v.1.15,2013-02-19 10:00:00,
2013-02-19 05:09:00,33.5,24.1,30.19,SW,217,3.0,7.0,68,0.00,,,0.00,0,Wunderground v.1.15,2013-02-19 10:09:00,
2013-02-19 05:15:00,33.5,24.1,30.19,West,261,4.0,7.0,68,0.00,,,0.00,0,Wunderground v.1.15,2013-02-19 10:15:00,
2013-02-19 05:25:00,33.5,23.7,30.20,SSE,159,4.0,8.0,67,0.00,,,0.00,0,Wunderground v.1.15,2013-02-19 10:25:00,
2013-02-19 05:30:00,33.7,24.3,30.19,ESE,117,4.0,4.0,68,0.00,,,0.00,0,Wunderground v.1.15,2013-02-19 10:30:00,
2013-02-19 05:39:00,34.0,24.5,30.19,WSW,237,2.0,2.0,68,0.00,,,0.00,0,Wunderground v.1.15,2013-02-19 10:39:00,
2013-02-19 05:45:00,34.2,24.4,30.19,SSW,194,3.0,3.0,67,0.00,,,0.00,0,Wunderground v.1.15,2013-02-19 10:45:00,
2013-02-19 05:55:00,34.4,24.6,30.19,ESE,119,3.0,7.0,67,0.00,,,0.00,0,Wunderground v.1.15,2013-02-19 10:55:00,
2013-02-19 06:00:00,34.4,24.2,30.19,South,172,4.0,7.0,66,0.00,,,0.00,0,Wunderground v.1.15,2013-02-19 11:00:00,
2013-02-19 06:10:00,34.7,24.5,30.20,South,179,4.0,4.0,66,0.00,,,0.00,0,Wunderground v.1.15,2013-02-19 11:10:00,
2013-02-19 06:15:00,34.8,25.0,30.19,SE,140,4.0,7.0,67,0.00,,,0.00,0,Wunderground v.1.15,2013-02-19 11:15:00,
2013-02-19 06:20:00,34.8,25.3,30.19,SSE,168,3.0,7.0,68,0.00,,,0.00,0,Wunderground v.1.15,2013-02-19 11:20:00,
2013-02-19 06:30:00,34.6,27.2,30.18,South,176,2.0,2.0,74,0.00,,,0.00,0,Wunderground v.1.15,2013-02-19 11:30:00,
2013-02-19 06:40:00,33.2,29.2,30.18,SW,220,4.0,4.0,85,0.00,,,0.00,0,Wunderground v.1.15,2013-02-19 11:40:00,
2013-02-19 06:50:00,31.9,29.3,30.18,SSW,209,4.0,7.0,90,0.00,,,0.00,0,Wunderground v.1.15,2013-02-19 11:50:00,
2013-02-19 06:55:00,31.5,29.2,30.18,ESE,120,4.0,7.0,91,0.00,,,0.00,0,Wunderground v.1.15,2013-02-19 11:55:00,
2013-02-19 07:00:00,31.4,29.6,30.17,SSE,153,5.0,5.0,93,0.00,,,0.00,0,Wunderground v.1.15,2013-02-19 12:00:00,
2013-02-19 07:10:00,31.4,29.9,30.17,SE,141,3.0,7.0,94,0.00,,,0.00,0,Wunderground v.1.15,2013-02-19 12:10:00,
2013-02-19 07:20:00,31.4,30.1,30.17,SE,141,3.0,9.0,95,0.00,,,0.00,0,Wunderground v.1.15,2013-02-19 12:20:00,
2013-02-19 07:25:00,31.6,30.3,30.16,WSW,245,3.0,9.0,95,0.00,,,0.00,0,Wunderground v.1.15,2013-02-19 12:25:00,
2013-02-19 07:30:00,31.7,30.4,30.16,South,172,4.0,7.0,95,0.00,,,0.00,0,Wunderground v.1.15,2013-02-19 12:30:00,
2013-02-19 07:40:00,31.9,30.6,30.16,WNW,296,3.0,8.0,95,0.00,,,0.00,0,Wunderground v.1.15,2013-02-19 12:40:00,
2013-02-19 07:45:00,31.9,30.9,30.15,WSW,240,3.0,8.0,96,0.00,,,0.00,0,Wunderground v.1.15,2013-02-19 12:45:00,
2013-02-19 07:50:00,32.1,31.1,30.16,West,259,4.0,7.0,96,0.00,,,0.00,19,Wunderground v.1.15,2013-02-19 12:50:00,
2013-02-19 08:00:00,32.1,31.1,30.16,NW,321,5.0,5.0,96,0.00,,,0.00,9,Wunderground v.1.15,2013-02-19 13:00:00,
2013-02-19 08:10:00,32.0,31.0,30.15,West,277,3.0,7.0,96,0.00,,,0.00,11,Wunderground v.1.15,2013-02-19 13:10:00,
2013-02-19 08:15:00,32.0,31.0,30.15,WSW,249,3.0,7.0,96,0.00,,,0.00,14,Wunderground v.1.15,2013-02-19 13:15:00,
2013-02-19 08:24:00,32.2,31.2,30.14,SSE,163,3.0,7.0,96,0.00,,,0.00,26,Wunderground v.1.15,2013-02-19 13:24:00,
2013-02-19 08:35:00,32.5,31.7,30.13,South,182,3.0,7.0,97,0.00,,,0.00,42,Wunderground v.1.15,2013-02-19 13:35:00,
2013-02-19 08:45:00,32.8,32.0,30.13,South,177,3.0,7.0,97,0.00,,,0.00,39,Wunderground v.1.15,2013-02-19 13:45:00,
2013-02-19 08:50:00,32.9,32.1,30.12,SSW,201,4.0,4.0,97,0.00,,,0.00,39,Wunderground v.1.15,2013-02-19 13:50:00,
2013-02-19 09:00:00,32.8,32.0,30.12,SSE,150,2.0,7.0,97,0.00,,,0.00,44,Wunderground v.1.15,2013-02-19 14:00:00,
2013-02-19 09:10:00,32.8,32.0,30.11,WNW,290,3.0,7.0,97,0.00,,,0.00,25,Wunderground v.1.15,2013-02-19 14:10:00,
2013-02-19 09:19:00,32.7,31.9,30.11,West,265,2.0,2.0,97,0.00,,,0.00,33,Wunderground v.1.15,2013-02-19 14:19:00,
2013-02-19 09:25:00,32.6,31.8,30.11,NE,51,2.0,7.0,97,0.00,,,0.00,25,Wunderground v.1.15,2013-02-19 14:25:00,
2013-02-19 09:30:00,32.5,31.7,30.11,South,173,2.0,2.0,97,0.00,,,0.00,26,Wunderground v.1.15,2013-02-19 14:30:00,
2013-02-19 09:35:00,32.4,31.6,30.10,South,190,2.0,7.0,97,0.00,,,0.00,35,Wunderground v.1.15,2013-02-19 14:35:00,
2013-02-19 09:44:00,32.3,31.5,30.10,WSW,242,1.0,7.0,97,0.00,,,0.01,35,Wunderground v.1.15,2013-02-19 14:44:00,
2013-02-19 09:49:00,32.3,31.5,30.10,WSW,251,1.0,7.0,97,0.00,,,0.01,42,Wunderground v.1.15,2013-02-19 14:49:00,
2013-02-19 09:55:00,32.3,31.5,30.10,WSW,249,1.0,7.0,97,0.00,,,0.01,53,Wunderground v.1.15,2013-02-19 14:55:00,
2013-02-19 10:00:00,32.3,31.5,30.09,SW,234,1.0,7.0,97,0.00,,,0.01,76,Wunderground v.1.15,2013-02-19 15:00:00,
2013-02-19 10:09:00,32.3,31.5,30.10,South,169,1.0,1.0,97,0.00,,,0.02,28,Wunderground v.1.15,2013-02-19 15:09:00,
2013-02-19 10:15:00,32.3,31.5,30.10,SSW,192,1.0,3.0,97,0.00,,,0.02,40,Wunderground v.1.15,2013-02-19 15:15:00,
2013-02-19 10:19:00,32.3,31.5,30.09,West,269,1.0,1.0,97,0.00,,,0.02,39,Wunderground v.1.15,2013-02-19 15:19:00,
2013-02-19 10:25:00,32.3,31.5,30.09,NW,309,1.0,7.0,97,0.00,,,0.02,46,Wunderground v.1.15,2013-02-19 15:25:00,
2013-02-19 10:30:00,32.4,31.6,30.09,WSW,253,0.0,7.0,97,0.00,,,0.02,35,Wunderground v.1.15,2013-02-19 15:30:00,
2013-02-19 10:39:00,32.5,32.0,30.09,ESE,111,0.0,7.0,98,0.00,,,0.02,32,Wunderground v.1.15,2013-02-19 15:39:00,
2013-02-19 10:45:00,32.6,32.1,30.09,SW,233,0.0,7.0,98,0.00,,,0.03,53,Wunderground v.1.15,2013-02-19 15:45:00,
2013-02-19 10:49:00,32.7,32.2,30.09,SW,234,0.0,7.0,98,0.00,,,0.03,132,Wunderground v.1.15,2013-02-19 15:49:00,
2013-02-19 10:55:00,32.9,32.4,30.08,SW,234,0.0,7.0,98,0.00,,,0.03,144,Wunderground v.1.15,2013-02-19 15:55:00,
2013-02-19 11:00:00,33.1,32.6,30.08,SW,234,0.0,7.0,98,0.04,,,0.04,158,Wunderground v.1.15,2013-02-19 16:00:00,
2013-02-19 11:10:00,33.6,33.1,30.08,SW,215,0.0,7.0,98,0.05,,,0.05,83,Wunderground v.1.15,2013-02-19 16:10:00,
2013-02-19 11:15:00,33.6,33.1,30.08,SW,215,0.0,7.0,98,0.05,,,0.05,95,Wunderground v.1.15,2013-02-19 16:15:00,
2013-02-19 11:25:00,33.8,33.3,30.08,SW,216,0.0,7.0,98,0.04,,,0.05,162,Wunderground v.1.15,2013-02-19 16:25:00,
2013-02-19 11:34:00,33.9,33.4,30.07,SW,215,0.0,7.0,98,0.00,,,0.06,186,Wunderground v.1.15,2013-02-19 16:34:00,
2013-02-19 11:39:00,34.1,33.6,30.07,SW,216,0.0,7.0,98,0.00,,,0.06,197,Wunderground v.1.15,2013-02-19 16:39:00,
2013-02-19 11:45:00,34.4,33.9,30.06,SW,220,0.0,7.0,98,0.00,,,0.06,155,Wunderground v.1.15,2013-02-19 16:45:00,
2013-02-19 11:50:00,34.4,33.9,30.06,SW,219,0.0,7.0,98,0.00,,,0.06,204,Wunderground v.1.15,2013-02-19 16:50:00,
2013-02-19 11:55:00,34.4,33.9,30.06,SW,220,0.0,7.0,98,0.00,,,0.06,188,Wunderground v.1.15,2013-02-19 16:55:00,
2013-02-19 12:00:00,34.5,34.0,30.05,SW,220,0.0,7.0,98,0.00,,,0.06,118,Wunderground v.1.15,2013-02-19 17:00:00,
2013-02-19 12:09:00,34.7,34.2,30.05,NW,304,0.0,7.0,98,0.00,,,0.06,260,Wunderground v.1.15,2013-02-19 17:09:00,
2013-02-19 12:15:00,34.9,34.4,30.04,NW,313,1.0,7.0,98,0.00,,,0.07,253,Wunderground v.1.15,2013-02-19 17:15:00,
2013-02-19 12:25:00,35.6,35.1,30.04,WSW,250,0.0,7.0,98,0.00,,,0.07,141,Wunderground v.1.15,2013-02-19 17:25:00,
2013-02-19 12:35:00,35.8,35.3,30.03,WSW,252,0.0,7.0,98,0.00,,,0.07,158,Wunderground v.1.15,2013-02-19 17:35:00,
2013-02-19 12:39:00,36.0,35.5,30.03,WSW,252,0.0,7.0,98,0.00,,,0.07,113,Wunderground v.1.15,2013-02-19 17:39:00,
2013-02-19 12:45:00,36.2,35.7,30.03,WSW,241,0.0,7.0,98,0.00,,,0.07,120,Wunderground v.1.15,2013-02-19 17:45:00,
2013-02-19 12:50:00,36.5,36.2,30.03,WSW,241,0.0,7.0,99,0.00,,,0.07,91,Wunderground v.1.15,2013-02-19 17:50:00,
2013-02-19 13:00:00,36.9,36.6,30.02,WSW,248,0.0,7.0,99,0.00,,,0.07,125,Wunderground v.1.15,2013-02-19 18:00:00,
2013-02-19 13:10:00,37.1,36.8,30.02,WSW,241,0.0,7.0,99,0.00,,,0.07,109,Wunderground v.1.15,2013-02-19 18:10:00,
2013-02-19 13:19:00,37.9,37.6,30.01,WSW,242,0.0,7.0,99,0.00,,,0.07,795,Wunderground v.1.15,2013-02-19 18:19:00,
2013-02-19 13:25:00,38.4,38.1,30.01,West,281,1.0,7.0,99,0.00,,,0.07,272,Wunderground v.1.15,2013-02-19 18:25:00,
2013-02-19 13:30:00,39.1,38.8,30.01,WSW,258,1.0,1.0,99,0.00,,,0.07,155,Wunderground v.1.15,2013-02-19 18:30:00,
2013-02-19 13:39:00,40.1,39.8,30.00,NNW,342,1.0,1.0,99,0.00,,,0.07,218,Wunderground v.1.15,2013-02-19 18:39:00,
2013-02-19 13:44:00,40.0,39.7,30.00,NW,318,2.0,3.0,99,0.00,,,0.07,113,Wunderground v.1.15,2013-02-19 18:44:00,
2013-02-19 13:49:00,39.8,39.5,30.01,WNW,286,3.0,7.0,99,0.00,,,0.07,181,Wunderground v.1.15,2013-02-19 18:49:00,
2013-02-19 13:55:00,39.8,39.3,30.01,WNW,290,5.0,7.0,98,0.00,,,0.07,107,Wunderground v.1.15,2013-02-19 18:55:00,
2013-02-19 14:00:00,39.8,38.8,30.01,NW,315,6.0,7.0,96,0.00,,,0.07,221,Wunderground v.1.15,2013-02-19 19:00:00,
2013-02-19 14:09:00,40.0,37.6,30.01,SSW,206,7.0,7.0,91,0.00,,,0.07,267,Wunderground v.1.15,2013-02-19 19:09:00,
2013-02-19 14:15:00,40.3,37.3,30.00,West,272,5.0,7.0,89,0.00,,,0.07,629,Wunderground v.1.15,2013-02-19 19:15:00,
2013-02-19 14:20:00,41.0,37.7,30.00,West,265,4.0,7.0,88,0.00,,,0.07,626,Wunderground v.1.15,2013-02-19 19:20:00,
2013-02-19 14:29:00,42.6,35.6,30.00,WNW,300,5.0,12.0,76,0.00,,,0.07,649,Wunderground v.1.15,2013-02-19 19:29:00,
2013-02-19 14:35:00,43.4,36.0,30.00,West,269,7.0,12.0,75,0.00,,,0.07,828,Wunderground v.1.15,2013-02-19 19:35:00,
2013-02-19 14:45:00,43.0,35.3,30.01,North,355,8.0,8.0,74,0.00,,,0.07,643,Wunderground v.1.15,2013-02-19 19:45:00,
2013-02-19 14:50:00,42.9,34.8,30.00,ESE,123,8.0,9.0,73,0.00,,,0.07,613,Wunderground v.1.15,2013-02-19 19:50:00,
2013-02-19 15:00:00,42.7,32.5,29.99,NW,323,10.0,10.0,67,0.00,,,0.07,589,Wunderground v.1.15,2013-02-19 20:00:00,
2013-02-19 15:10:00,43.3,32.3,30.00,SW,236,7.0,18.0,65,0.00,,,0.07,541,Wunderground v.1.15,2013-02-19 20:10:00,
2013-02-19 15:20:00,43.0,31.6,30.00,SW,217,9.0,10.0,64,0.00,,,0.07,547,Wunderground v.1.15,2013-02-19 20:20:00,
2013-02-19 15:29:00,43.3,31.9,30.00,WSW,242,7.0,7.0,64,0.00,,,0.07,596,Wunderground v.1.15,2013-02-19 20:29:00,
2013-02-19 15:35:00,43.4,31.6,30.00,West,267,7.0,7.0,63,0.00,,,0.07,548,Wunderground v.1.15,2013-02-19 20:35:00,
2013-02-19 15:40:00,43.4,31.2,29.99,NW,314,8.0,8.0,62,0.00,,,0.07,543,Wunderground v.1.15,2013-02-19 20:40:00,
2013-02-19 15:45:00,43.4,30.8,30.00,West,279,7.0,9.0,61,0.00,,,0.07,527,Wunderground v.1.15,2013-02-19 20:45:00,
2013-02-19 15:55:00,42.8,30.3,30.01,ENE,57,10.0,17.0,61,0.00,,,0.07,489,Wunderground v.1.15,2013-02-19 20:55:00,
2013-02-19 16:00:00,42.2,30.1,30.00,WSW,243,10.0,12.0,62,0.00,,,0.07,102,Wunderground v.1.15,2013-02-19 21:00:00,
2013-02-19 16:10:00,41.8,29.7,30.01,NNW,344,8.0,12.0,62,0.00,,,0.07,464,Wunderground v.1.15,2013-02-19 21:10:00,
2013-02-19 16:19:00,41.5,29.8,30.00,WNW,292,7.0,7.0,63,0.00,,,0.07,397,Wunderground v.1.15,2013-02-19 21:19:00,
2013-02-19 16:25:00,41.6,29.5,30.02,WNW,303,6.0,7.0,62,0.00,,,0.07,345,Wunderground v.1.15,2013-02-19 21:25:00,
2013-02-19 16:30:00,41.5,28.6,30.02,NW,304,9.0,14.0,60,0.00,,,0.07,343,Wunderground v.1.15,2013-02-19 21:30:00,
2013-02-19 16:39:00,41.5,28.2,30.01,West,278,9.0,9.0,59,0.00,,,0.07,311,Wunderground v.1.15,2013-02-19 21:39:00,
2013-02-19 16:45:00,41.3,28.0,30.02,NW,323,8.0,16.0,59,0.00,,,0.07,40,Wunderground v.1.15,2013-02-19 21:45:00,
2013-02-19 16:55:00,40.2,27.4,30.02,WNW,294,10.0,15.0,60,0.00,,,0.07,35,Wunderground v.1.15,2013-02-19 21:55:00,
2013-02-19 17:00:00,39.9,27.1,30.02,WNW,287,7.0,7.0,60,0.00,,,0.07,30,Wunderground v.1.15,2013-02-19 22:00:00,
2013-02-19 17:09:00,39.7,26.1,30.03,West,271,7.0,7.0,58,0.00,,,0.07,44,Wunderground v.1.15,2013-02-19 22:09:00,
2013-02-19 17:15:00,39.7,26.1,30.02,West,259,8.0,8.0,58,0.00,,,0.07,32,Wunderground v.1.15,2013-02-19 22:15:00,
2013-02-19 17:20:00,39.6,26.4,30.03,West,259,7.0,10.0,59,0.00,,,0.07,28,Wunderground v.1.15,2013-02-19 22:20:00,
2013-02-19 17:25:00,39.6,26.4,30.03,WSW,248,5.0,11.0,59,0.00,,,0.07,35,Wunderground v.1.15,2013-02-19 22:25:00,
2013-02-19 17:30:00,39.6,26.8,30.03,SE,142,4.0,7.0,60,0.00,,,0.07,121,Wunderground v.1.15,2013-02-19 22:30:00,
2013-02-19 17:39:00,39.5,26.8,30.04,NNW,330,7.0,7.0,60,0.00,,,0.07,26,Wunderground v.1.15,2013-02-19 22:39:00,
2013-02-19 17:45:00,39.4,26.7,30.04,NW,309,8.0,8.0,60,0.00,,,0.07,16,Wunderground v.1.15,2013-02-19 22:45:00,
2013-02-19 17:50:00,39.2,26.5,30.04,West,277,6.0,7.0,60,0.00,,,0.07,14,Wunderground v.1.15,2013-02-19 22:50:00,
2013-02-19 17:55:00,38.9,25.8,30.04,WNW,290,8.0,8.0,59,0.00,,,0.07,12,Wunderground v.1.15,2013-02-19 22:55:00,
2013-02-19 18:00:00,38.7,26.0,30.04,NW,318,8.0,8.0,60,0.00,,,0.07,7,Wunderground v.1.15,2013-02-19 23:00:00,
2013-02-19 18:10:00,38.3,25.6,30.05,WNW,296,9.0,9.0,60,0.00,,,0.07,0,Wunderground v.1.15,2013-02-19 23:10:00,
2013-02-19 18:19:00,38.1,24.6,30.06,NNW,327,7.0,12.0,58,0.00,,,0.07,0,Wunderground v.1.15,2013-02-19 23:19:00,
2013-02-19 18:25:00,38.3,24.8,30.06,WNW,296,9.0,12.0,58,0.00,,,0.07,0,Wunderground v.1.15,2013-02-19 23:25:00,
2013-02-19 18:30:00,38.3,24.4,30.06,WNW,292,8.0,8.0,57,0.00,,,0.07,0,Wunderground v.1.15,2013-02-19 23:30:00,
2013-02-19 18:35:00,38.2,23.9,30.07,WSW,238,7.0,9.0,56,0.00,,,0.07,0,Wunderground v.1.15,2013-02-19 23:35:00,
2013-02-19 18:40:00,38.3,24.0,30.07,NNW,335,7.0,15.0,56,0.00,,,0.07,0,Wunderground v.1.15,2013-02-19 23:40:00,
2013-02-19 18:49:00,38.1,23.3,30.07,North,349,6.0,8.0,55,0.00,,,0.07,0,Wunderground v.1.15,2013-02-19 23:49:00,
2013-02-19 18:55:00,37.9,22.7,30.08,WNW,298,6.0,8.0,54,0.00,,,0.07,0,Wunderground v.1.15,2013-02-19 23:55:00,
2013-02-19 19:00:00,38.0,21.5,30.08,WSW,253,9.0,9.0,51,0.00,,,0.07,0,Wunderground v.1.15,2013-02-20 00:00:00,
2013-02-19 19:09:00,37.8,20.8,30.08,NW,324,6.0,8.0,50,0.00,,,0.07,0,Wunderground v.1.15,2013-02-20 00:09:00,
2013-02-19 19:15:00,37.8,21.3,30.08,NW,322,7.0,8.0,51,0.00,,,0.07,0,Wunderground v.1.15,2013-02-20 00:15:00,
2013-02-19 19:20:00,37.6,20.1,30.09,NNW,331,6.0,16.0,49,0.00,,,0.07,0,Wunderground v.1.15,2013-02-20 00:20:00,
2013-02-19 19:25:00,37.5,20.1,30.09,NW,326,8.0,16.0,49,0.00,,,0.07,0,Wunderground v.1.15,2013-02-20 00:25:00,
2013-02-19 19:30:00,37.5,20.1,30.09,WNW,302,8.0,8.0,49,0.00,,,0.07,0,Wunderground v.1.15,2013-02-20 00:30:00,
2013-02-19 19:35:00,37.3,19.4,30.09,NNW,331,7.0,8.0,48,0.00,,,0.07,0,Wunderground v.1.15,2013-02-20 00:35:00,
2013-02-19 19:40:00,37.3,19.4,30.09,SSE,156,7.0,7.0,48,0.00,,,0.07,0,Wunderground v.1.15,2013-02-20 00:40:00,
2013-02-19 19:49:00,36.9,19.0,30.10,WNW,288,6.0,8.0,48,0.00,,,0.07,0,Wunderground v.1.15,2013-02-20 00:49:00,
2013-02-19 19:55:00,36.8,18.4,30.09,NNW,337,7.0,15.0,47,0.00,,,0.07,0,Wunderground v.1.15,2013-02-20 00:55:00,
2013-02-19 20:00:00,36.6,18.7,30.10,NW,306,6.0,7.0,48,0.00,,,0.07,0,Wunderground v.1.15,2013-02-20 01:00:00,
2013-02-19 20:09:00,36.4,18.1,30.09,NNW,327,5.0,8.0,47,0.00,,,0.07,0,Wunderground v.1.15,2013-02-20 01:09:00,
2013-02-19 20:15:00,36.2,18.4,30.09,NW,311,5.0,8.0,48,0.00,,,0.07,0,Wunderground v.1.15,2013-02-20 01:15:00,
2013-02-19 20:25:00,35.7,18.4,30.10,South,181,3.0,7.0,49,0.00,,,0.07,0,Wunderground v.1.15,2013-02-20 01:25:00,
2013-02-19 20:30:00,35.5,18.2,30.10,WNW,289,4.0,4.0,49,0.00,,,0.07,0,Wunderground v.1.15,2013-02-20 01:30:00,
2013-02-19 20:39:00,35.2,17.4,30.10,WNW,288,6.0,6.0,48,0.00,,,0.07,0,Wunderground v.1.15,2013-02-20 01:39:00,
2013-02-19 20:45:00,35.0,17.7,30.10,North,355,6.0,7.0,49,0.00,,,0.07,0,Wunderground v.1.15,2013-02-20 01:45:00,
2013-02-19 20:50:00,34.9,17.7,30.10,West,276,5.0,5.0,49,0.00,,,0.07,0,Wunderground v.1.15,2013-02-20 01:50:00,
2013-02-19 20:55:00,34.7,17.0,30.10,West,273,6.0,6.0,48,0.00,,,0.07,0,Wunderground v.1.15,2013-02-20 01:55:00,
2013-02-19 21:00:00,34.7,16.5,30.10,NW,323,7.0,7.0,47,0.00,,,0.07,0,Wunderground v.1.15,2013-02-20 02:00:00,
2013-02-19 21:09:00,34.4,15.2,30.10,West,260,5.0,5.0,45,0.00,,,0.07,0,Wunderground v.1.15,2013-02-20 02:09:00,
2013-02-19 21:15:00,34.4,15.2,30.10,NNW,340,4.0,7.0,45,0.00,,,0.07,0,Wunderground v.1.15,2013-02-20 02:15:00,
2013-02-19 21:20:00,34.2,14.5,30.11,NNE,22,4.0,4.0,44,0.00,,,0.07,0,Wunderground v.1.15,2013-02-20 02:20:00,
2013-02-19 21:29:00,33.9,14.8,30.11,NNW,346,5.0,5.0,45,0.00,,,0.07,0,Wunderground v.1.15,2013-02-20 02:29:00,
2013-02-19 21:35:00,33.7,14.1,30.11,West,263,5.0,7.0,44,0.00,,,0.07,0,Wunderground v.1.15,2013-02-20 02:35:00,
2013-02-19 21:39:00,33.6,14.5,30.11,North,355,4.0,15.0,45,0.00,,,0.07,0,Wunderground v.1.15,2013-02-20 02:39:00,
2013-02-19 21:45:00,33.4,13.8,30.11,WNW,288,4.0,15.0,44,0.00,,,0.07,0,Wunderground v.1.15,2013-02-20 02:45:00,
2013-02-19 21:50:00,33.3,13.2,30.11,NNW,347,6.0,11.0,43,0.00,,,0.07,0,Wunderground v.1.15,2013-02-20 02:50:00,
2013-02-19 22:00:00,33.1,14.0,30.12,NW,305,6.0,6.0,45,0.00,,,0.07,0,Wunderground v.1.15,2013-02-20 03:00:00,
2013-02-19 22:10:00,32.8,14.8,30.12,WSW,257,8.0,8.0,47,0.00,,,0.07,0,Wunderground v.1.15,2013-02-20 03:10:00,
2013-02-19 22:20:00,32.5,14.0,30.12,NW,324,6.0,7.0,46,0.00,,,0.07,0,Wunderground v.1.15,2013-02-20 03:20:00,
2013-02-19 22:30:00,32.3,14.3,30.11,WNW,296,8.0,8.0,47,0.00,,,0.07,0,Wunderground v.1.15,2013-02-20 03:30:00,
2013-02-19 22:40:00,31.9,14.4,30.11,WSW,246,9.0,11.0,48,0.00,,,0.07,0,Wunderground v.1.15,2013-02-20 03:40:00,
2013-02-19 22:49:00,31.6,14.1,30.11,NW,306,5.0,5.0,48,0.00,,,0.07,0,Wunderground v.1.15,2013-02-20 03:49:00,
2013-02-19 22:55:00,31.4,14.4,30.13,NW,317,4.0,7.0,49,0.00,,,0.07,0,Wunderground v.1.15,2013-02-20 03:55:00,
2013-02-19 23:00:00,31.1,14.1,30.11,NW,307,5.0,5.0,49,0.00,,,0.07,0,Wunderground v.1.15,2013-02-20 04:00:00,
2013-02-19 23:09:00,30.8,13.9,30.12,West,265,8.0,9.0,49,0.00,,,0.07,0,Wunderground v.1.15,2013-02-20 04:09:00,
2013-02-19 23:15:00,30.7,13.8,30.11,WSW,254,10.0,11.0,49,0.00,,,0.07,0,Wunderground v.1.15,2013-02-20 04:15:00,
2013-02-19 23:20:00,30.6,13.7,30.11,WSW,258,8.0,9.0,49,0.00,,,0.07,0,Wunderground v.1.15,2013-02-20 04:20:00,
2013-02-19 23:30:00,30.3,13.9,30.12,NW,322,5.0,5.0,50,0.00,,,0.07,0,Wunderground v.1.15,2013-02-20 04:30:00,
2013-02-19 23:39:00,30.1,14.1,30.12,NW,319,5.0,8.0,51,0.00,,,0.07,0,Wunderground v.1.15,2013-02-20 04:39:00,
2013-02-19 23:45:00,29.9,13.9,30.12,NW,309,4.0,8.0,51,0.00,,,0.07,0,Wunderground v.1.15,2013-02-20 04:45:00,
2013-02-19 23:55:00,29.7,13.3,30.12,West,273,4.0,7.0,50,0.00,,,0.07,0,Wunderground v.1.15,2013-02-20 04:55:00,